User: anonymous   Login
Location: Kudlacze
(49.7800°N, 20.0200°E)
Time: 08:10:32
(UTC+00:00)
Language:

Envisat - Orbit

View from above orbital plane
View from above orbital plane
View from above satellite
View from above satellite

Ground track
Ground track

The orbit data is extracted from the following two-line orbital elements,

1 27386U 02009A   21298.00574968  .00000035  00000-0  24901-4 0  9996
2 27386  98.1605 285.5148 0001234  91.3497 335.6666 14.38049152 29691
Epoch (UTC): 25 October 2021 00:08:16
Eccentricity: 0.0001234
inclination: 98.1605°
perigee height: 764 km
apogee height: 766 km
right ascension of ascending node: 285.5148°
argument of perigee: 91.3497°
revolutions per day: 14.38049152
mean anomaly at epoch: 335.6666°
orbit number at epoch: 2969

The dashed part of the orbit path shows where the satellite is in the earth's shadow,  

DLR